User: anonymous   Login
Location: Unspecified
(0.0000°N, 0.0000°E)
Time: 01:09:03
(UTC+01:00)
Language:

Cosmos 1092 Rocket - Orbit

View from above orbital plane
View from above orbital plane
View from above satellite
View from above satellite

Ground track
Ground track

The orbit data is extracted from the following two-line orbital elements,

1 11327U 79030B   15061.47149568  .00000012  00000-0 -29515-5 0  9991
2 11327 082.9510 197.8596 0027616 007.3268 056.2390 13.76953705803859
Epoch (UTC): 02 March 2015 11:18:57
Eccentricity: 0.0027616
inclination: 82.9510°
perigee height: 954 km
apogee height: 995 km
right ascension of ascending node: 197.8596°
argument of perigee: 7.3268°
revolutions per day: 13.76953705
mean anomaly at epoch: 56.2390°
orbit number at epoch: 80385

The dashed part of the orbit path shows where the satellite is in the earth's shadow,  

DLR